Flag for U.S.A. Weather past 2 weeks in Atascadero, California, U.S.A.

Now
66 °F

Clear.


Feels Like: 66 °F
Forecast: 66 / 94 °F
Wind: No wind

Location: Paso Robles Municipal Airport

Current Time: Jun 30, 2015 at 5:57:42 AM

Latest Report: Jun 30, 2015 at 4:53 AM


Visibility: 10 mi

Pressure: 29.87 "Hg

Humidity: 61%

Dew point: 52 °F

Location of AtascaderoLocation

Historic Weather in Atascadero — Graph

°F

Atascadero temperature yesterday

Maximum temperature yesterday: 103 °F (at 3:53 PM)
Minimum temperature yesterday: 57 °F (at 5:53 AM)
Average temperature yesterday: 78 °F

Past Weeks' High & Low Weather Summary

 TemperatureHumidityPressure
High103 °F (Jun 29, 3:53 PM)100% (Jun 15, 5:53 AM)30.03 "Hg (Jun 15, 5:53 AM)
Low47 °F (Jun 22, 5:53 AM)4% (Jun 16, 3:53 PM)29.78 "Hg (Jun 15, 4:53 PM)
Average73 °F43%29.91 "Hg
* Reported Jun 15 3:53 AM — Jun 30 3:53 AM, Atascadero, Weather by CustomWeather, © 2015

Note: Actual official high and low records may vary slightly from our data, if they occured in-between our weather recording intervals... More about our weather records

Advertising

Atascadero weather history for previous 24 hours

 ConditionsComfort  
Time TempWeatherWind HumidityBarometerVisibility
3:53 AM
Tue, Jun 30
66 °FClear.No wind61%29.88 "Hg10 mi
2:53 AM68 °FClear.3 mph57%29.87 "Hg10 mi
1:53 AM69 °FClear.No wind55%29.88 "Hg10 mi
12:53 AM72 °FClear.6 mph52%29.88 "Hg10 mi
11:53 PM
Mon, Jun 29
75 °FClear.7 mph47%29.88 "Hg10 mi
10:53 PM78 °FClear.7 mph42%29.89 "Hg10 mi
9:53 PM81 °FClear.13 mph38%29.87 "Hg10 mi
8:53 PM83 °FSunny.8 mph37%29.86 "Hg10 mi
7:53 PM89 °FSunny.9 mph27%29.84 "Hg10 mi
6:53 PM90 °FSunny.13 mph28%29.82 "Hg10 mi
5:53 PM97 °FSunny.14 mph23%29.81 "Hg10 mi
4:53 PM103 °FSunny.5 mph15%29.80 "Hg10 mi
3:53 PM103 °FSunny.7 mph15%29.81 "Hg10 mi
2:53 PM102 °FSunny.No wind16%29.83 "Hg10 mi
1:53 PM99 °FSunny.6 mph20%29.85 "Hg10 mi
12:53 PM96 °FSunny.7 mph23%29.88 "Hg10 mi
11:53 AM88 °FSunny.5 mph31%29.91 "Hg10 mi
10:53 AM81 °FSunny.6 mph39%29.93 "Hg10 mi
9:53 AM73 °FSunny.No wind53%29.95 "Hg10 mi
8:53 AM66 °FSunny.3 mph70%29.97 "Hg10 mi
7:53 AM62 °FSunny.7 mph78%29.98 "Hg10 mi
6:53 AM58 °FSunny.9 mph90%29.97 "Hg10 mi
5:53 AM57 °FClear.6 mph93%29.96 "Hg10 mi
Weather by CustomWeather, © 2015

See weather overviewHow to use our weather pages